Location: Goodmans Corner
(38.2049°N, 120.9872°W)
Time: 10:08:32
(UTC+00:00)

Envisat - Pass Details

Date: 27 October 2019
Orbit: 764 x 766 km, 98.1° (Epoch: 22 November)

Event Time Altitude Azimuth Distance (km) Brightness Sun altitude
Rises 13:37:01 0° 35° (NE) 3,236 6.6 -10.0°
Reaches altitude 10° 13:40:38 10° 62° (ENE) 2,304 6.3 -9.3°
Maximum altitude 13:43:02 13° 91° (E) 2,073 6.7 -8.8°
Drops below altitude 10° 13:45:26 10° 119° (ESE) 2,296 6.8 -8.3°
Sets 13:49:01 0° 146° (SE) 3,215 7.0 -7.7°
